Weather History for Avalon, CA

Change the Weather History Date:

Friday, February 8, 2013

  Actual Average Record
Temperature  
Mean Temperature 44 °F -  
Max Temperature 46 °F 56 °F 77 °F (2006)
Min Temperature 42 °F 47 °F 42 °F (2001)
Degree Days  
Heating Degree Days 21    
Moisture  
Dew Point 38 °F    
Average Humidity 79    
Maximum Humidity 89    
Minimum Humidity 66    
Precipitation  
Precipitation 0.05 in - - ()
Sea Level Pressure  
Sea Level Pressure 29.95 in    
Wind  
Wind Speed 18 mph (West)    
Max Wind Speed 28 mph    
Max Gust Speed 34 mph    
Visibility 10 miles    
Events Rain    
Averages and records for this station are not official NWS values.
T = Trace of Precipitation, MM = Missing Value Source: NWS Daily Summary

Daily Weather History Graph

Daily Weather History Graph

Search for Another Location

Airport:

Trip Planner

Search our weather history database for the weather conditions in past years. The results will help you decide how hot, cold, wet, or windy it might be!

Date:

Astronomy

Feb. 08, 2013 Rise Set
Actual Time 6:43 AM PST 5:32 PM PST
Civil Twilight 6:18 AM PST 5:58 PM PST
Nautical Twilight 5:48 AM PST 6:27 PM PST
Astronomical Twilight 5:19 AM PST 6:56 PM PST
Moon 5:13 AM PST (2/8) 4:12 PM PST (2/8)
Length of Visible Light 11h 39m
Length of Day
10h 48m
Waning Crescent, 3% of the Moon is Illuminated
Feb 8
Waning Crescent
Feb 9
New
Feb 17
First Quarter
Feb 25
Full
Mar 4
Last Quarter

Hourly Weather History & Observations

Time (PST) Temp. Windchill Dew Point Humidity Pressure Visibility Wind Dir Wind Speed Gust Speed Precip Events Conditions
12:05 AM 46.4 °F 38.3 °F 42.8 °F 87% 30.00 in 10.0 mi West 23.0 mph 32.2 mph N/A   Mostly Cloudy
12:51 AM 46.0 °F 38.0 °F 39.9 °F 79% 30.01 in 10.0 mi West 21.9 mph 29.9 mph N/A   Overcast
1:10 AM 44.6 °F 35.7 °F 35.6 °F 71% 30.00 in 10.0 mi West 24.2 mph 31.1 mph N/A   Mostly Cloudy
1:20 AM 44.6 °F 36.9 °F 37.4 °F 76% 30.00 in 10.0 mi West 18.4 mph 31.1 mph N/A   Mostly Cloudy
1:38 AM 44.6 °F 36.1 °F 37.4 °F 76% 30.00 in 10.0 mi West 21.9 mph 31.1 mph N/A   Mostly Cloudy
1:51 AM 45.0 °F 36.4 °F 37.9 °F 76% 30.01 in 10.0 mi West 23.0 mph 33.4 mph N/A   Mostly Cloudy
2:11 AM 44.6 °F 35.7 °F 37.4 °F 76% 29.99 in 10.0 mi West 24.2 mph 31.1 mph N/A   Scattered Clouds
2:51 AM 45.0 °F 37.6 °F 35.1 °F 68% 29.99 in 10.0 mi West 17.3 mph 25.3 mph N/A   Scattered Clouds
3:08 AM 44.6 °F 36.9 °F 35.6 °F 71% 29.98 in 10.0 mi West 18.4 mph 26.5 mph N/A   Mostly Cloudy
3:51 AM 45.0 °F 36.2 °F 37.0 °F 74% 29.98 in 10.0 mi West 24.2 mph 32.2 mph N/A   Mostly Cloudy
4:51 AM 45.0 °F 37.9 °F 37.0 °F 74% 29.99 in 10.0 mi West 16.1 mph 25.3 mph N/A   Overcast
5:51 AM 45.0 °F 38.2 °F 37.9 °F 76% 29.99 in 10.0 mi West 15.0 mph - N/A   Overcast
6:51 AM 43.0 °F 36.0 °F 37.9 °F 82% 30.01 in 10.0 mi West 13.8 mph 23.0 mph 0.00 in   Overcast
7:11 AM 42.8 °F 36.6 °F 39.2 °F 87% 29.99 in 10.0 mi West 11.5 mph - N/A   Overcast
7:18 AM 42.8 °F 36.2 °F 39.2 °F 87% 29.99 in 10.0 mi West 12.7 mph - N/A   Overcast
7:51 AM 43.0 °F 37.7 °F 39.9 °F 89% 30.01 in 10.0 mi WSW 9.2 mph - 0.01 in   Mostly Cloudy
7:59 AM 44.6 °F 39.2 °F 41.0 °F 87% 29.99 in 10.0 mi WSW 10.4 mph - N/A   Overcast
8:22 AM 42.8 °F 36.2 °F 39.2 °F 87% 29.99 in 9.0 mi West 12.7 mph - 0.00 in Rain Light Rain
8:37 AM 44.6 °F 39.2 °F 39.2 °F 81% 29.99 in 10.0 mi WSW 10.4 mph - 0.00 in   Mostly Cloudy
8:51 AM 44.1 °F 37.7 °F 41.0 °F 89% 30.01 in 10.0 mi WSW 12.7 mph - 0.00 in   Mostly Cloudy
9:05 AM 44.6 °F 38.4 °F 41.0 °F 87% 29.99 in 10.0 mi WSW 12.7 mph - N/A   Mostly Cloudy
9:20 AM 44.6 °F 38.1 °F 41.0 °F 87% 29.98 in 10.0 mi West 13.8 mph - N/A   Mostly Cloudy
9:32 AM 46.4 °F 39.8 °F 41.0 °F 81% 29.98 in 10.0 mi West 16.1 mph - N/A   Mostly Cloudy
9:51 AM 46.9 °F - 39.9 °F 77% 30.00 in 10.0 mi WSW 17.3 mph 24.2 mph 0.00 in Rain Light Rain
10:08 AM 46.4 °F 40.1 °F 39.2 °F 76% 29.98 in 10.0 mi WSW 15.0 mph - 0.00 in   Mostly Cloudy
10:17 AM 46.4 °F 39.5 °F 39.2 °F 76% 29.98 in 10.0 mi WSW 17.3 mph 24.2 mph 0.00 in   Mostly Cloudy
10:26 AM 46.4 °F 38.7 °F 37.4 °F 71% 29.98 in 10.0 mi WSW 20.7 mph 27.6 mph 0.00 in   Scattered Clouds
10:39 AM 46.4 °F 38.5 °F 37.4 °F 71% 29.98 in 10.0 mi West 21.9 mph 34.5 mph 0.00 in   Mostly Cloudy
10:51 AM 43.0 °F 35.4 °F 37.0 °F 80% 30.00 in 5.0 mi West 16.1 mph 33.4 mph 0.01 in Rain Light Rain
10:58 AM 44.6 °F 38.1 °F 39.2 °F 81% 29.98 in 10.0 mi West 13.8 mph - 0.00 in   Mostly Cloudy
11:14 AM 44.6 °F 36.6 °F 37.4 °F 76% 29.97 in 7.0 mi West 19.6 mph 27.6 mph 0.01 in Rain Light Rain
11:30 AM 46.4 °F 39.2 °F 42.8 °F 87% 29.96 in 10.0 mi West 18.4 mph 25.3 mph 0.01 in   Overcast
11:39 AM 46.4 °F 39.0 °F 42.8 °F 87% 29.96 in 10.0 mi West 19.6 mph 26.5 mph 0.01 in   Overcast
11:51 AM 46.9 °F - 41.0 °F 80% 29.96 in 10.0 mi West 21.9 mph 28.8 mph 0.01 in   Mostly Cloudy
12:33 PM 46.4 °F 39.5 °F 37.4 °F 71% 29.93 in 10.0 mi WSW 17.3 mph 29.9 mph N/A   Overcast
12:51 PM 46.0 °F 37.2 °F 37.0 °F 71% 29.94 in 10.0 mi West 26.5 mph 32.2 mph 0.00 in Rain Light Rain
1:00 PM 46.4 °F 37.5 °F 35.6 °F 66% 29.92 in 10.0 mi West 27.6 mph 32.2 mph 0.00 in   Mostly Cloudy
1:51 PM 46.0 °F 37.8 °F 35.1 °F 66% 29.92 in 10.0 mi West 23.0 mph 28.8 mph 0.00 in   Partly Cloudy
2:22 PM 44.6 °F 35.3 °F 35.6 °F 71% 29.90 in 10.0 mi West 26.5 mph 33.4 mph N/A   Mostly Cloudy
2:51 PM 42.1 °F 32.3 °F 37.0 °F 82% 29.92 in 10.0 mi West 24.2 mph 29.9 mph 0.01 in Rain Light Rain
3:12 PM 42.8 °F 34.3 °F 35.6 °F 76% 29.89 in 10.0 mi West 19.6 mph 29.9 mph 0.00 in Rain Light Rain
3:51 PM 44.1 °F 35.9 °F 36.0 °F 73% 29.90 in 10.0 mi WSW 19.6 mph 27.6 mph 0.00 in   Clear
4:21 PM 42.8 °F 33.8 °F 37.4 °F 81% 29.87 in 10.0 mi West 21.9 mph 28.8 mph N/A   Mostly Cloudy
4:51 PM 43.0 °F 33.3 °F 36.0 °F 76% 29.90 in 10.0 mi West 25.3 mph 28.8 mph N/A   Mostly Cloudy
5:51 PM 42.1 °F 32.8 °F 36.0 °F 79% 29.90 in 10.0 mi West 21.9 mph 27.6 mph 0.00 in   Overcast
6:15 PM 42.8 °F 34.5 °F 35.6 °F 76% 29.88 in 10.0 mi West 18.4 mph 25.3 mph N/A   Mostly Cloudy
6:46 PM 42.8 °F 34.3 °F 35.6 °F 76% 29.88 in 10.0 mi WNW 19.6 mph 27.6 mph 0.00 in   Mostly Cloudy
6:51 PM 43.0 °F 34.5 °F 36.0 °F 76% 29.90 in 10.0 mi West 19.6 mph 27.6 mph 0.00 in   Mostly Cloudy
7:23 PM 42.8 °F 36.2 °F 35.6 °F 76% 29.88 in 10.0 mi WNW 12.7 mph 21.9 mph 0.00 in   Mostly Cloudy
7:51 PM 42.1 °F 34.2 °F 37.0 °F 82% 29.91 in 9.0 mi West 16.1 mph 24.2 mph 0.00 in Rain Light Rain
8:21 PM 42.8 °F 36.6 °F 37.4 °F 81% 29.89 in 10.0 mi West 11.5 mph - 0.00 in   Scattered Clouds
8:51 PM 43.0 °F 36.8 °F 37.0 °F 80% 29.92 in 10.0 mi WNW 11.5 mph - 0.00 in   Mostly Cloudy
9:24 PM 42.8 °F 37.0 °F 37.4 °F 81% 29.90 in 10.0 mi WNW 10.4 mph - 0.00 in Rain Light Rain
9:51 PM 43.0 °F 37.7 °F 37.9 °F 82% 29.92 in 10.0 mi WNW 9.2 mph - 0.00 in Rain Light Rain
9:58 PM 42.8 °F 37.0 °F 37.4 °F 81% 29.90 in 10.0 mi WNW 10.4 mph - 0.00 in   Overcast
10:26 PM 42.8 °F 36.6 °F 37.4 °F 81% 29.90 in 10.0 mi West 11.5 mph - 0.00 in   Overcast
10:51 PM 43.0 °F 37.7 °F 37.9 °F 82% 29.93 in 10.0 mi West 9.2 mph - 0.01 in Rain Light Rain
11:40 PM 42.8 °F 38.0 °F 39.2 °F 87% 29.92 in 10.0 mi WNW 8.1 mph - 0.00 in   Mostly Cloudy
11:51 PM 43.0 °F 38.8 °F 39.0 °F 86% 29.94 in 10.0 mi NW 6.9 mph - 0.00 in   Overcast